Simultaneous Nadir Overpasses (SNOs) Predictions

Prediction of SNOs between GOES-15 and METOP-A Satellite Orbit:

Table of predicted SNOs for the next 14.0 days since TLE Epoch: 4/6/2017
Index Date Time (GOES-15) GOES-15 Lat,Lon METOP-A Lat,Lon Distance(km) Time Diff (sec)
1 04/07/2017 06:15:25 0.02,-135.35 0.93,-131.34 457.54 80
2 04/08/2017 18:34:16 -0.03,-135.37 0.09,-135.90 60.06 80
3 04/11/2017 06:29:57 0.03,-135.43 0.01,-135.51 9.12 80
4 04/13/2017 18:28:08 -0.03,-135.46 -0.10,-135.07 43.60 80
5 04/15/2017 06:47:09 0.04,-135.48 -0.92,-139.67 478.07 80
6 04/16/2017 06:29:09 0.04,-135.49 0.20,-134.68 92.29 80
7 04/17/2017 18:48:02 -0.05,-135.50 0.76,-139.25 426.75 80
8 04/18/2017 18:24:42 -0.05,-135.51 -0.35,-134.26 142.99 80
9 04/20/2017 06:43:41 0.06,-135.52 -0.71,-138.85 380.08 80




NCC Satellite Simultaneous Nadir Overpasses (SNOs) Prediction Service
